sat.trackr.live / text

‹ back to catalog

STARLINK-2373

NORAD 47796 · 2021-018K

PAYLOAD ACTIVE UNKNOWN

§ Identity

Operator
Country
US
Launch date
2021-03-11
Launch site
AFETR
Launch vehicle
Mass (kg)
RCS (m²)

Purposes: comms

External: N2YO · Heavens-Above · Gunter

§ Orbital elements

Epoch: 2026-09-20T00:55:17.181984Z

Period
93.35 min
Inclination
53.1527°
Eccentricity
0.0000943
Mean motion
15.42579013 rev/d
Perigee alt
437.9 km
Apogee alt
439.1 km
Semi-major
6,816.6 km
B*
1.0482e-3
RAAN
49.6809°
Arg perigee
118.0063°
Mean anomaly
242.1039°
Rev number
30,661

§ Raw data

STARLINK-23731 47796U 21018K   26263.03839331  .00046123  00000+0  10482-2 0  99962 47796  53.1527  49.6809 0000943 118.0063 242.1039 15.42579013306613

JSON: /api/v1/satellites/47796 · /tle

For live sub-satellite position, see the globe view (requires WebGL).

§ Visibility from observer

Set your observer location to see the next 7 days of passes ≥ 10°. The values pass through the URL so the page stays shareable.

No JS? Fill the form by hand. The geolocation button needs JavaScript.